Regional Weather Roundup
Issued by NWS Bismarck, ND

Home | Current Version | Previous Version | Text Only | Print | Product List | Glossary On
Versions: 1 2 3 4 5 6 7 8 9 10 11 12 13 14 15 16 17 18 19 20 21 22 23 24 25 26 27 28 29 30 31 32 33 34 35 36 37 38 39 40 41 42 43 44 45 46 47 48 49 50
922
ASUS43 KBIS 211710
RWRBIS

NWR BROADCAST TEXT
NATIONAL WEATHER SERVICE BISMARCK ND
1100 AM CST TUE FEB 21 2017

NOTE: "FAIR" INDICATES FEW OR NO CLOUDS BELOW 12,000 FEET WITH NO
SIGNIFICANT WEATHER AND/OR OBSTRUCTIONS TO VISIBILITY.


CITY           SKY/WX    TMP DP  RH WIND       PRES   REMARKS
WILLISTON      FAIR      39  32  76 SW6       29.66S
MINOT          FAIR      44  33  65 SW9       29.64S
MINOT AFB      FAIR      39  33  79 W7        29.64S
BISMARCK       FAIR      44  32  62 S3        29.70S
DICKINSON      FAIR      48  32  53 W9        29.68S
GARRISON         N/A     39  32  76 SW6       29.67R
HETTINGER ARPT FAIR      57  33  40 W8        29.73S
JAMESTOWN      FAIR      43  34  70 W16       29.66R
CARRINGTON     FAIR      37  34  87 W12       29.68R
HAZEN            N/A    N/A N/A N/A SW8       29.70S
MANDAN         FAIR      45  32  61 W5        29.70S
RUGBY            N/A     32  32 100 E6        29.66S
STANLEY        FAIR      37  37 100 W10       29.67R
TIOGA          FAIR      36  36 100 SW7       29.66S
WATFORD CITY   FAIR      37  32  81 SW10      29.67S
$$

CITY           SKY/WX    TMP DP  RH WIND       PRES   REMARKS
GRAND FORKS    FAIR      37  31  78 S6        29.67F
GRAND FORKS AF MOSUNNY   37  35  92 SW3       29.68S
DEVILS LAKE    FAIR      37  32  82 CALM      29.66S
FARGO          FAIR      41  35  79 S9        29.67F
CAVALIER       FOG       32  32 100 CALM      29.70F VSB<1/4
GRAFTON        FAIR      32  32 100 NE7       29.70F FOG
GWINNER        FAIR      45  37  76 SW12      29.69R
ROLLA          FAIR      32  32 100 N3        29.67S
$$

CITY           SKY/WX    TMP DP  RH WIND       PRES   REMARKS
ABERDEEN       FAIR      45  35  68 S7        29.72S
MOBRIDGE       FAIR      50  34  54 CALM      29.69S
BUFFALO          N/A     58  34  40 W9        29.67R
RAPID CITY     FAIR      65  32  29 W20G29    29.75S
SIDNEY         FAIR      41  34  76 S6        29.68S
WOLF POINT     FAIR      34  32  92 CALM      29.67S
GLENDIVE       CLOUDY    44  34  67 SW7       29.70S
MILES CITY     CLOUDY    47  38  71 S6        29.71R
BAKER          PTSUNNY   51  34  52 NW9       29.72F
$$

CITY           SKY/WX    TMP DP  RH WIND       PRES   REMARKS
BILLINGS       FAIR      53  33  46 SW12      29.68S
GREAT FALLS    CLOUDY    40  33  76 CALM      29.60F
REGINA         LGT SNOW  34  30  86 NE10      29.66R FOG
ESTEVAN        PTSUNNY   36  32  87 SW6       29.62F
$$





USA.gov is the U.S. government's official web portal to all federal, state and local government web resources and services.